This is the latest recevied weather packets stored in our database for station/object N7JP. If no packets are shown the sender has not sent any weather packets the latest 10 day(s).
| Time | Temp. | Humidity | Pressure | Rain* | Wind** | Luminosity | Snow |
|---|---|---|---|---|---|---|---|
| 1777896054 | 9.44° C | 91% | 1004.4 hPa | 0 mm | - | - | - |
| 1777895151 | 9.44° C | 90% | 1004.3 hPa | 0 mm | - | - | - |
| 1777894249 | 9.44° C | 90% | 1004.4 hPa | 0 mm | - | - | - |
| 1777893346 | 9.44° C | 88% | 1004.4 hPa | 0 mm | - | - | - |
| 1777892446 | 9.44° C | 87% | 1004.4 hPa | 0 mm | - | - | - |
| 1777891526 | 10° C | 86% | 1004.4 hPa | 0 mm | - | - | - |
| 1777890626 | 10° C | 86% | 1004.4 hPa | 0 mm | - | - | - |
| 1777889696 | 10° C | 85% | 1004.3 hPa | 0 mm | - | - | - |
| 1777888796 | 10° C | 84% | 1004.3 hPa | 0 mm | - | - | - |
| 1777887896 | 10.56° C | 84% | 1004.1 hPa | 0 mm | - | - | - |
| 1777886973 | 10.56° C | 83% | 1004.2 hPa | 0 mm | - | - | - |
| 1777886072 | 10.56° C | 83% | 1004.1 hPa | 0 mm | - | - | - |
| 1777885165 | 11.11° C | 83% | 1004 hPa | 0 mm | - | - | - |
| 1777884264 | 11.11° C | 83% | 1004.1 hPa | 0 mm | - | - | - |
| 1777883353 | 11.67° C | 81% | 1004.1 hPa | 0 mm | - | - | - |
| 1777882448 | 12.22° C | 78% | 1004 hPa | 0 mm | - | - | - |
| 1777881546 | 12.78° C | 77% | 1004 hPa | 0 mm | - | - | - |
| 1777880644 | 12.78° C | 79% | 1004.1 hPa | 0 mm | - | - | - |
| 1777879742 | 12.78° C | 78% | 1004.1 hPa | 0 mm | - | - | - |
| 1777878845 | 13.33° C | 79% | 1004.1 hPa | 0 mm | - | - | - |
| 1777877941 | 12.78° C | 81% | 1004 hPa | 0 mm | - | - | - |
| 1777877008 | 12.78° C | 84% | 1004.1 hPa | 0 mm | - | - | - |
| 1777876107 | 13.33° C | 82% | 1004.2 hPa | 0 mm | - | - | - |
| 1777875208 | 13.89° C | 77% | 1004.2 hPa | 0 mm | - | - | - |
| 1777874305 | 14.44° C | 75% | 1004.2 hPa | 0 mm | - | - | - |
* Rain latest hour (hover to see other rain measurements)
** Current wind speed in m/s (hover to see current wind gust speed)